カタログに戻る

COSMOS 2085

運用中軍事GEO
NORAD 20693·PAYLOAD·🇷🇺 Russia

打ち上げ Jul 18, 1990 から Baikonur Cosmodrome

Loading…

TLE

最新Source: Space-Track

元期: Sep 13, 2026, 17:36 UTC

1 20693U 90061A   26256.73375454 -.00000071  00000-0  00000-0 0  9994
2 20693  12.5880 335.8772 0012951  31.2772 320.0433  1.00276169132385

AllMySatでCOSMOS 2085をリアルタイム追跡

Download on the App Store